Location: Pine Mountain Observatory
(43.7910°N, 120.9377°W)
Time: 16:43:47
(UTC-07:00)

Cosmos 1867 - Visible Passes

Search period start: 31 May 2016 00:00
Search period end: 10 June 2016 00:00
Orbit: 773 x 803 km, 65.0° (Epoch: 30 May)

Date Brightness Start Highest point End Pass type
(mag) Time Alt. Az. Time Alt. Az. Time Alt. Az.
31 May 3.8 01:01:22 42° WSW 01:03:07 65° NW 01:08:36 10° NNE visible
31 May 6.0 02:44:26 10° WNW 02:47:48 16° NNW 02:51:10 10° N visible
31 May 5.4 22:49:21 15° E 22:49:21 15° E 22:51:34 10° ENE visible
01 Jun 3.5 00:29:57 50° SW 00:31:27 85° NW 00:36:58 10° NNE visible
01 Jun 5.8 02:11:57 10° W 02:15:52 19° NW 02:19:48 10° N visible
01 Jun 5.6 22:17:49 10° E 22:17:49 10° E 22:17:57 10° E visible
01 Jun 3.5 23:58:25 50° S 23:59:49 74° ESE 00:05:18 10° NE visible
02 Jun 5.6 01:39:37 10° W 01:43:58 24° NW 01:48:22 10° NNE visible
02 Jun 3.7 23:26:43 41° SSE 23:28:13 55° ESE 23:33:34 10° NE visible
03 Jun 5.3 01:07:23 10° WSW 01:12:07 29° NW 01:16:54 10° NNE visible
03 Jun 4.0 22:54:48 30° SSE 22:56:41 40° ESE 23:01:47 10° NE visible
04 Jun 4.9 00:35:22 10° WSW 00:40:19 36° NW 00:45:24 10° NNE visible
04 Jun 6.4 02:23:57 10° NW 02:25:35 11° NNW 02:27:13 10° N visible
04 Jun 4.4 22:22:36 20° SSE 22:25:10 30° ESE 22:29:53 10° NE visible
05 Jun 4.5 00:03:19 10° WSW 00:08:34 47° NW 00:13:52 10° NNE visible
05 Jun 6.3 01:51:01 10° NW 01:53:34 13° NNW 01:56:07 10° N visible
05 Jun 4.8 21:49:53 11° SSE 21:53:42 22° ESE 21:57:49 10° ENE visible
05 Jun 4.0 23:31:27 10° SW 23:36:51 61° NW 23:42:18 10° NNE visible
06 Jun 6.3 01:18:21 10° WNW 01:21:35 16° NNW 01:24:50 10° N visible
06 Jun 5.1 21:19:02 10° SE 21:22:16 16° ESE 21:25:30 10° ENE visible
06 Jun 3.7 22:59:42 10° SW 23:05:10 80° NW 23:10:41 10° NNE visible
07 Jun 6.1 00:45:50 10° WNW 00:49:38 19° NW 00:53:28 10° N visible
07 Jun 3.5 22:28:05 10° SSW 22:33:31 78° ESE 22:39:02 10° NE visible
08 Jun 5.9 00:13:28 10° W 00:17:45 23° NW 00:22:03 10° NNE visible
08 Jun 3.6 21:56:36 10° SSW 22:01:56 58° ESE 22:07:19 10° NE visible
08 Jun 5.6 23:41:13 10° W 23:45:53 28° NW 23:50:35 10° NNE visible
09 Jun 3.9 21:25:16 10° S 21:30:22 43° ESE 21:35:32 10° NE visible
09 Jun 5.3 23:09:06 10° WSW 23:14:04 35° NW 23:19:05 10° NNE visible
